DW8427 Weather Reports


time (UTC)temp
C
wind
direction
speed
KPH
gust
KPH
rain 1hr
cm
rain 24hr
cm
rain mn
cm
humidity
%
barometer
mb
20260506124556 13 113 0.0 0.0 0.00 0.00 0.00 82 1019.5
20260506123054 13 115 0.0 0.0 0.00 0.00 0.00 82 1019.5
20260506121557 13 137 0.0 0.0 0.00 0.00 0.00 82 1019.3
20260506120053 13 98 0.0 0.0 0.00 0.00 0.00 82 1019.2
20260506114553 13 124 0.0 0.0 0.00 0.00 0.00 82 1019.3
20260506113051 13 125 0.0 0.0 0.00 0.00 0.00 81 1019.2
20260506111548 13 136 0.0 1.6 0.00 0.00 0.00 81 1019.1
20260506110047 13 139 0.0 0.0 0.00 0.00 0.00 81 1019.0
20260506104546 13 120 0.0 1.6 0.00 0.00 0.00 80 1018.9
20260506103052 13 119 0.0 0.0 0.00 0.00 0.00 79 1018.8
20260506101543 13 128 0.0 0.0 0.00 0.00 0.00 80 1018.7
20260506100044 13 95 0.0 0.0 0.00 0.00 0.00 80 1018.6
20260506094541 13 147 0.0 0.0 0.00 0.00 0.00 79 1018.6
20260506093040 13 134 0.0 0.0 0.00 0.00 0.00 79 1018.6
20260506091540 13 113 0.0 0.0 0.00 0.00 0.00 80 1018.6
20260506090046 14 120 0.0 0.0 0.00 0.00 0.00 80 1018.6
20260506084545 14 143 0.0 0.0 0.00 0.00 0.00 80 1018.6
20260506083036 14 143 0.0 0.0 0.00 0.00 0.00 80 1018.6
20260506081639 14 96 0.0 1.6 0.00 0.00 0.00 80 1018.6
20260506073028 15 108 0.0 0.0 0.00 0.18 0.00 79 1018.4
20260506071527 15 127 0.0 0.0 0.00 0.18 0.00 79 1018.2
20260506061540 15 223 0.0 0.0 0.00 0.33 0.18 78 1017.6
20260506044517 16 94 0.0 0.0 0.00 0.84 0.18 77 1016.8
20260506043017 16 96 0.0 0.0 0.00 0.84 0.18 76 1016.7
20260506041507 16 137 0.0 1.6 0.00 0.84 0.18 76 1016.3
20260506040005 16 115 0.0 1.6 0.00 0.84 0.18 76 1016.2
20260506034504 16 118 0.0 1.6 0.00 1.42 0.18 74 1016.3
20260506033004 16 116 0.0 1.6 0.00 1.42 0.18 74 1016.1
20260506031501 16 98 0.0 3.2 0.00 1.42 0.18 74 1015.8
20260506030100 16 82 0.0 1.6 0.00 1.42 0.18 73 1015.7
20260506024601 16 133 0.0 3.2 0.00 1.65 0.18 72 1015.5
20260506023100 16 103 0.0 4.8 0.00 1.65 0.18 72 1015.3
20260506021605 17 120 0.0 3.2 0.00 1.65 0.18 72 1015.2
20260506020057 17 96 0.0 11.3 0.00 1.65 0.18 72 1015.1
20260506014557 17 137 3.2 12.9 0.00 1.93 0.18 70 1015.1
20260506013105 17 143 0.0 9.7 0.00 1.93 0.18 70 1015.0
20260506011606 17 160 1.6 9.7 0.00 1.93 0.18 69 1015.0
20260506010055 17 134 1.6 12.9 0.00 1.93 0.18 69 1014.9
20260506004553 17 88 0.0 8.0 0.00 2.08 0.18 69 1014.8
20260506003053 17 112 0.0 3.2 0.00 2.08 0.18 68 1014.7
20260506001554 17 129 1.6 6.4 0.00 2.08 0.18 68 1014.8
20260506000052 17 121 0.0 1.6 0.00 2.08 0.18 68 1014.6
20260505234602 17 129 0.0 6.4 0.00 2.31 0.18 67 1014.6
20260505233051 17 153 0.0 4.8 0.00 2.31 0.18 67 1014.6
20260505231605 17 120 0.0 8.0 0.00 2.31 0.18 66 1014.6
20260505230053 18 116 0.0 8.0 0.00 2.31 0.18 66 1014.7
20260505224550 18 103 3.2 9.7 0.00 2.44 0.18 64 1014.7
20260505223057 18 126 0.0 0.0 0.00 2.44 0.18 61 1014.8
20260505221556 19 297 0.0 0.0 0.00 2.44 0.18 61 1015.0
20260505220045 18 80 0.0 0.0 0.00 2.44 0.18 65 1015.0
20260505214603 17 298 0.0 4.8 0.00 2.49 0.18 66 1015.1
20260505213043 18 291 0.0 4.8 0.00 2.49 0.18 68 1015.2
20260505211543 17 117 0.0 1.6 0.00 2.49 0.18 68 1015.3
20260505210044 18 327 0.0 4.8 0.00 2.49 0.18 68 1015.3
20260505204542 18 70 0.0 4.8 0.00 2.49 0.18 67 1015.3
20260505203039 17 40 0.0 8.0 0.00 2.49 0.18 70 1015.3
20260505201538 17 210 0.0 4.8 0.00 2.49 0.18 70 1015.4
20260505200043 17 115 0.0 0.0 0.00 2.49 0.18 70 1015.5
20260505194533 16 139 0.0 4.8 0.00 2.57 0.18 70 1015.7
20260505193034 16 245 0.0 3.2 0.00 2.57 0.18 72 1015.7
20260505191531 16 226 0.0 0.0 0.00 2.57 0.18 73 1015.7
20260505190033 16 230 0.0 1.6 0.00 2.57 0.18 73 1015.7
20260505184529 16 101 0.0 1.6 0.00 2.57 0.18 74 1015.6
20260505183029 15 89 0.0 0.0 0.00 2.57 0.18 76 1015.6
20260505181521 14 91 0.0 4.8 0.00 2.57 0.18 78 1015.6
20260505180023 15 138 0.0 0.0 0.00 2.57 0.18 79 1015.5
20260505174516 13 150 0.0 1.6 0.00 2.62 0.18 81 1015.4
20260505173014 13 201 0.0 4.8 0.00 2.62 0.18 82 1015.2
20260505171512 13 113 0.0 4.8 0.00 2.62 0.18 84 1015.4
20260505170013 12 117 0.0 4.8 0.00 2.62 0.18 85 1015.4
20260505164507 12 110 0.0 4.8 0.00 2.62 0.18 86 1015.3
20260505163009 12 122 0.0 3.2 0.00 2.62 0.18 88 1015.3
20260505161502 12 168 0.0 3.2 0.00 2.62 0.18 89 1015.3
20260505153102 11 129 0.0 1.6 0.00 2.62 0.18 91 1015.2
20260505151604 11 105 0.0 6.4 0.00 2.62 0.18 91 1015.1
20260505140111 11 94 0.0 4.8 0.00 2.62 0.18 92 1014.4